Hourly Weather Nagoya

Today, 17 January, Sunday

Time Temperature Precipitation Wind Pressure Humidity
00:00 +4°C° 0 mm 2 mps 751 mmHg 79%
01:00 +4°C° 0 mm 2 mps 751 mmHg 78%
02:00 +4°C° 0 mm 2 mps 751 mmHg 77%
03:00 +4°C° 0 mm 2 mps 751 mmHg 76%
04:00 +3°C° 0 mm 2 mps 751 mmHg 76%
05:00 +3°C° 0 mm 2 mps 751 mmHg 76%
06:00 +3°C° 0 mm 2 mps 751 mmHg 77%
07:00 +3°C° 0 mm 2 mps 751 mmHg 75%
08:00 +5°C° 0 mm 1 mps 751 mmHg 73%
09:00 +5°C° 0 mm 1 mps 752 mmHg 71%
10:00 +5°C° 0 mm 2 mps 751 mmHg 67%
11:00 +6°C° 0 mm 2 mps 751 mmHg 62%
12:00 +7°C° 0 mm 2 mps 750 mmHg 58%
13:00 +7°C° 0 mm 3 mps 750 mmHg 55%
14:00 +6°C° 0 mm 5 mps 750 mmHg 53%
15:00 +5°C° 0 mm 6 mps 750 mmHg 50%
16:00 +4°C° 0 mm 6 mps 750 mmHg 51%
17:00 +3°C° 0 mm 6 mps 751 mmHg 53%
18:00 +2°C° 0 mm 6 mps 751 mmHg 54%
19:00 +2°C° 0 mm 6 mps 752 mmHg 59%
20:00 +2°C° 0 mm 6 mps 752 mmHg 63%
21:00 +1°C° 0 mm 5 mps 753 mmHg 68%
22:00 +1°C° 0 mm 5 mps 753 mmHg 69%
23:00 +1°C° 0 mm 5 mps 753 mmHg 71%

Tomorrow, 18 January, Monday

Time Temperature Precipitation Wind Pressure Humidity
00:00 +1°C° 0 mm 5 mps 753 mmHg 72%
01:00 0°C° 0 mm 4 mps 753 mmHg 73%
02:00 0°C° 0 mm 4 mps 753 mmHg 74%
03:00 -1°C° 0 mm 4 mps 752 mmHg 75%
04:00 0°C° 0.1 mm 3 mps 752 mmHg 74%
05:00 0°C° 0.1 mm 3 mps 753 mmHg 73%
06:00 0°C° 0.1 mm 3 mps 753 mmHg 73%
07:00 0°C° 0 mm 3 mps 753 mmHg 68%
08:00 +1°C° 0 mm 3 mps 753 mmHg 64%
09:00 +1°C° 0 mm 3 mps 753 mmHg 59%
10:00 +2°C° 0 mm 3 mps 752 mmHg 53%
11:00 +3°C° 0 mm 3 mps 752 mmHg 46%
12:00 +4°C° 0 mm 3 mps 751 mmHg 40%
13:00 +4°C° 0 mm 4 mps 751 mmHg 40%
14:00 +5°C° 0 mm 4 mps 750 mmHg 39%
15:00 +5°C° 0 mm 5 mps 749 mmHg 39%
16:00 +4°C° 0 mm 4 mps 749 mmHg 44%
17:00 +3°C° 0 mm 4 mps 749 mmHg 48%
18:00 +3°C° 0 mm 3 mps 749 mmHg 52%
19:00 +1°C° 0.3 mm 4 mps 748 mmHg 63%
20:00 +1°C° 0.3 mm 5 mps 748 mmHg 73%
21:00 +1°C° 0.3 mm 5 mps 748 mmHg 84%
22:00 +1°C° 0.2 mm 6 mps 748 mmHg 77%
23:00 0°C° 0.2 mm 7 mps 748 mmHg 71%

Day after tomorrow, 19 January, Tuesday

Time Temperature Precipitation Wind Pressure Humidity
00:00 +1°C° 0.2 mm 9 mps 748 mmHg 65%
01:00 0°C° 0 mm 9 mps 749 mmHg 66%
02:00 -1°C° 0 mm 9 mps 749 mmHg 68%
03:00 -3°C° 0 mm 9 mps 750 mmHg 69%
04:00 -2°C° 0.1 mm 8 mps 751 mmHg 71%
05:00 -2°C° 0.1 mm 7 mps 752 mmHg 73%
06:00 -3°C° 0.1 mm 6 mps 753 mmHg 74%
07:00 -3°C° 0.1 mm 7 mps 754 mmHg 70%
08:00 -2°C° 0.1 mm 7 mps 755 mmHg 66%
09:00 -2°C° 0.1 mm 8 mps 755 mmHg 61%
10:00 -2°C° 0 mm 8 mps 756 mmHg 59%
11:00 -2°C° 0 mm 8 mps 756 mmHg 56%
12:00 -1°C° 0 mm 8 mps 757 mmHg 53%
13:00 -1°C° 0 mm 8 mps 757 mmHg 52%
14:00 -2°C° 0 mm 8 mps 757 mmHg 52%
15:00 -2°C° 0 mm 8 mps 757 mmHg 51%
16:00 -3°C° 0 mm 7 mps 758 mmHg 54%
17:00 -3°C° 0 mm 6 mps 758 mmHg 56%
18:00 -4°C° 0 mm 5 mps 759 mmHg 59%
19:00 -4°C° 0 mm 5 mps 760 mmHg 59%
20:00 -3°C° 0 mm 4 mps 760 mmHg 60%
21:00 -4°C° 0 mm 3 mps 761 mmHg 60%
22:00 -4°C° 0 mm 3 mps 761 mmHg 60%
23:00 -4°C° 0 mm 3 mps 761 mmHg 60%

20 January, Wednesday

Time Temperature Precipitation Wind Pressure Humidity
00:00 -4°C° 0 mm 3 mps 761 mmHg 59%
01:00 -4°C° 0 mm 3 mps 761 mmHg 58%
02:00 -4°C° 0 mm 3 mps 761 mmHg 57%
03:00 -4°C° 0 mm 3 mps 761 mmHg 56%
04:00 -4°C° 0 mm 3 mps 761 mmHg 57%
05:00 -4°C° 0 mm 3 mps 761 mmHg 57%
06:00 -3°C° 0 mm 2 mps 761 mmHg 58%
07:00 -2°C° 0 mm 2 mps 761 mmHg 55%
08:00 -1°C° 0 mm 2 mps 762 mmHg 52%
09:00 -1°C° 0 mm 2 mps 762 mmHg 49%
10:00 +2°C° 0 mm 2 mps 761 mmHg 44%
11:00 +4°C° 0 mm 1 mps 761 mmHg 39%
12:00 +5°C° 0 mm 1 mps 760 mmHg 34%
13:00 +6°C° 0 mm 1 mps 760 mmHg 33%
14:00 +6°C° 0 mm 1 mps 760 mmHg 32%
15:00 +7°C° 0 mm 1 mps 760 mmHg 30%
16:00 +6°C° 0 mm 1 mps 760 mmHg 34%
17:00 +5°C° 0 mm 1 mps 760 mmHg 37%
18:00 +4°C° 0 mm 1 mps 760 mmHg 40%
19:00 +3°C° 0 mm 1 mps 760 mmHg 42%
20:00 +3°C° 0 mm 1 mps 760 mmHg 44%
21:00 +3°C° 0 mm 1 mps 760 mmHg 46%
22:00 +3°C° 0 mm 1 mps 760 mmHg 47%
23:00 +3°C° 0 mm 1 mps 760 mmHg 48%

21 January, Thursday

Time Temperature Precipitation Wind Pressure Humidity
00:00 +3°C° 0 mm 1 mps 759 mmHg 50%
01:00 +3°C° 0 mm 1 mps 759 mmHg 49%
02:00 +3°C° 0 mm 1 mps 759 mmHg 49%
03:00 +3°C° 0 mm 1 mps 759 mmHg 48%
04:00 +2°C° 0 mm 1 mps 759 mmHg 49%
05:00 +2°C° 0 mm 1 mps 759 mmHg 50%
06:00 +2°C° 0 mm 1 mps 759 mmHg 51%
07:00 +3°C° 0 mm 1 mps 758 mmHg 50%
08:00 +4°C° 0 mm 1 mps 758 mmHg 48%
09:00 +5°C° 0 mm 1 mps 758 mmHg 47%
10:00 +7°C° 0 mm 1 mps 758 mmHg 43%
11:00 +8°C° 0 mm 1 mps 757 mmHg 39%
12:00 +10°C° 0 mm 1 mps 756 mmHg 36%
13:00 +10°C° 0 mm 1 mps 756 mmHg 35%
14:00 +11°C° 0 mm 1 mps 756 mmHg 35%
15:00 +11°C° 0 mm 1 mps 755 mmHg 35%
16:00 +10°C° 0 mm 1 mps 755 mmHg 39%
17:00 +9°C° 0 mm 1 mps 755 mmHg 42%
18:00 +6°C° 0 mm 2 mps 755 mmHg 46%
19:00 +6°C° 0 mm 2 mps 755 mmHg 49%
20:00 +6°C° 0 mm 2 mps 756 mmHg 51%
21:00 +6°C° 0 mm 2 mps 756 mmHg 54%
22:00 +5°C° 0 mm 2 mps 756 mmHg 56%
23:00 +5°C° 0 mm 2 mps 756 mmHg 59%

22 January, Friday

Time Temperature Precipitation Wind Pressure Humidity
00:00 +5°C° 0 mm 2 mps 755 mmHg 61%
01:00 +5°C° 0 mm 2 mps 755 mmHg 63%
02:00 +5°C° 0 mm 2 mps 755 mmHg 65%
03:00 +5°C° 0 mm 2 mps 755 mmHg 67%
04:00 +5°C° 0 mm 2 mps 755 mmHg 69%
05:00 +4°C° 0 mm 2 mps 755 mmHg 71%
06:00 +5°C° 0 mm 1 mps 755 mmHg 73%
07:00 +6°C° 0 mm 1 mps 756 mmHg 72%
08:00 +7°C° 0 mm 1 mps 756 mmHg 70%
09:00 +8°C° 0 mm 1 mps 756 mmHg 68%
10:00 +9°C° 0 mm 1 mps 756 mmHg 64%
11:00 +11°C° 0 mm 1 mps 755 mmHg 59%
12:00 +12°C° 0 mm 1 mps 755 mmHg 54%
13:00 +13°C° 0 mm 1 mps 755 mmHg 53%
14:00 +13°C° 0 mm 1 mps 755 mmHg 51%
15:00 +13°C° 0 mm 1 mps 755 mmHg 50%
16:00 +12°C° 0 mm 1 mps 755 mmHg 56%
17:00 +11°C° 0 mm 1 mps 755 mmHg 63%
18:00 +9°C° 0 mm 1 mps 755 mmHg 69%
19:00 +9°C° 0 mm 1 mps 755 mmHg 71%
20:00 +9°C° 0 mm 1 mps 756 mmHg 72%
21:00 +7°C° 0 mm 2 mps 756 mmHg 74%
22:00 +7°C° 0 mm 2 mps 756 mmHg 73%
23:00 +7°C° 0 mm 2 mps 755 mmHg 72%
Show more

We Need Your Consent

Meteoprog and our Service Providers may store and access personal data such as cookies, device identifiers or other similar technologies on your device and process such data to personalise content and ads, as well as provide social media features and to analyse the traffic.

  • Store and/or access information on your device

    Cookies, device identifiers or other information can be stored or accessed on your device for the purposes indicated above.

  • Personalised ads and content, ad and content measurement, audience insights, and products development

    Ads and content can be personalised based on a profile. More data can be added to better personalise ads and content. Ad and content performance can be measured. Insights about the audience who saw the ads and content can be derived. Such data can be used to develop or improve user’s experience, systems and software.

By clicking ‘I Agree’ you will allow the use of indicated cookies, device identifiers, web beacons or other similar technologies. Your settings can be changed in the browser on your device.

For certain purposes, legitimate interests may be relied on, rather than consent. You can read more about this in our Privacy and Cookie Policy.